Regional Weather Roundup
Issued by NWS

Home | Current Version | Previous Version | Text Only | Print | Product List | Glossary Off
Versions: 1 2 3 4 5 6 7 8 9 10 11 12 13 14 15 16 17 18 19 20 21 22 23 24 25 26 27 28 29 30 31 32 33 34 35 36 37 38 39 40 41 42 43 44 45 46 47 48 49 50

000
ASUS45 KSLC 211610
RWRUT

UTAH REGIONAL WEATHER ROUNDUP
NATIONAL WEATHER SERVICE SALT LAKE CITY UT
1000 AM MDT TUE OCT 21 2014

UTZ001>011-023>025-211700-

NORTHERN UTAH

CITY           SKY/WX    TMP DP  RH WIND       PRES   REMARKS
BRIGHAM CITY   CLOUDY    60  43  53 S7        29.94R
HILL AFB       MOSUNNY   61  39  44 W12       29.96R
LOGAN          MOSUNNY   61  43  51 W12G23    29.91R
OGDEN          PTSUNNY   62  37  39 W12       29.94R
PROVO AIRPORT  PTSUNNY   63  41  45 SE7       29.96S
SALT LAKE CITY MOSUNNY   69  40  34 S18G25    29.91R
VERNAL         PTSUNNY   53  40  61 CALM      30.04S
WENDOVER       SUNNY     59  30  33 W20       29.98R
HEBER CITY     MOSUNNY   59  39  47 CALM      29.99S
WEST JORDAN    SUNNY     66  46  48 SE21G26   29.94R

$$

UTZ012>022-026-027-211700-

SOUTHERN/CENTRAL UTAH

CITY           SKY/WX    TMP DP  RH WIND       PRES   REMARKS
BLANDING       PTSUNNY   57  43  60 SE12      30.22S
BRYCE CANYON   MOSUNNY   50  39  66 NW5       30.19R
CEDAR CITY     SUNNY     61  42  49 SW9       30.05S
DELTA          SUNNY     63  39  42 S14       29.98S
HANKSVILLE       N/A     54  37  54 NW3       30.05R
MILFORD        SUNNY     61  41  47 SW16      30.01S
MOAB/CYNLANDS  SUNNY     64  43  46 SE7       30.02R
PRICE          PTSUNNY   52  38  58 CALM      30.07R
ST GEORGE      MOSUNNY   70  43  37 NE5       29.99R
KANAB            N/A     57  39  51 NW7       30.12R

$$

REGIONAL REPORTS     COLORADO/ARIZONA

CITY           SKY/WX    TMP DP  RH WIND       PRES   REMARKS
CRAIG, CO      MOSUNNY   52  40  63 CALM      30.10F
GRAND JUNCTION PTSUNNY   58  40  51 E10       30.06S
RIFLE          LGT RAIN  51  39  63 CALM      30.11F
MONTROSE       CLOUDY    56  39  53 CALM      30.14S
CORTEZ         SUNNY     59  42  53 CALM      30.16R
PAGE, AZ       NOT AVBL
GRAND CANYON   PTSUNNY   53  40  61 S5        30.18R
KINGMAN        SUNNY     72  45  37 S13       29.99F
FLAGSTAFF      SUNNY     56  43  61 CALM      30.20S

$$

REGIONAL REPORTS    NEVADA/IDAHO/WYOMING

CITY           SKY/WX    TMP DP  RH WIND       PRES   REMARKS
LAS VEGAS, NV  SUNNY     74  37  26 S14G24    29.87R
ELY            SUNNY     54  29  38 NW12      30.07R
ELKO           PTSUNNY   47  33  58 SW9       30.10R
POCATELLO, ID  LGT RAIN  44  38  79 SW18G29   30.03R
BURLEY         PTSUNNY   42  37  82 SW10      30.02R
EVANSTON, WY   MOSUNNY   54  39  57 SW17      30.02S
ROCK SPRINGS   MOSUNNY   58  36  43 SW13      30.03S
KEMMERER       PTSUNNY   50  36  57 S9        30.03R

$$



USA.gov is the U.S. government's official web portal to all federal, state and local government web resources and services.